Weather History for Sussex, NJ

Change the Weather History Date:

Sunday, March 16, 2014

  Actual Average Record
Temperature  
Mean Temperature 30 °F -  
Max Temperature 35 °F 46 °F 78 °F (1990)
Min Temperature 25 °F 23 °F 2 °F (1993)
Degree Days  
Heating Degree Days 35    
Moisture  
Dew Point 8 °F    
Average Humidity 43    
Maximum Humidity 54    
Minimum Humidity 35    
Precipitation  
Precipitation 0.00 in - - ()
Sea Level Pressure  
Sea Level Pressure 30.16 in    
Wind  
Wind Speed 7 mph (NNW)    
Max Wind Speed 15 mph    
Max Gust Speed 23 mph    
Visibility 10 miles    
Events      
Averages and records for this station are not official NWS values.
T = Trace of Precipitation, MM = Missing Value Source: NWS Daily Summary

Daily Weather History Graph

Daily Weather History Graph

Search for Another Location

Airport:

Trip Planner

Search our weather history database for the weather conditions in past years. The results will help you decide how hot, cold, wet, or windy it might be!

Date:

Astronomy

Mar. 16, 2014 Rise Set
Actual Time 7:08 AM EDT 7:06 PM EDT
Civil Twilight 6:41 AM EDT 7:33 PM EDT
Nautical Twilight 6:09 AM EDT 8:05 PM EDT
Astronomical Twilight 5:36 AM EDT 8:38 PM EDT
Moon 7:21 PM EDT (3/16) 6:50 AM EDT (3/16)
Length of Visible Light 12h 52m
Length of Day
11h 57m
Full, 100% of the Moon is Illuminated
Mar 16
Full
Mar 16
Full
Mar 23
Last Quarter
Mar 30
New
Apr 7
First Quarter

Hourly Weather History & Observations

Time (EDT) Temp. Windchill Dew Point Humidity Pressure Visibility Wind Dir Wind Speed Gust Speed Precip Events Conditions
12:53 AM 35.1 °F 31.0 °F 19.9 °F 54% 30.04 in 10.0 mi Variable 4.6 mph - N/A   Partly Cloudy
1:53 AM 33.1 °F 26.9 °F 17.1 °F 52% 30.06 in 10.0 mi Variable 6.9 mph - N/A   Scattered Clouds
2:53 AM 32.0 °F 24.8 °F 12.9 °F 45% 30.09 in 10.0 mi West 8.1 mph 17.3 mph N/A   Clear
3:53 AM 30.0 °F 25.2 °F 15.1 °F 54% 30.09 in 10.0 mi NW 4.6 mph - N/A   Clear
4:53 AM 28.0 °F 21.7 °F 12.0 °F 51% 30.10 in 10.0 mi NW 5.8 mph - N/A   Clear
5:53 AM 27.0 °F 20.5 °F 9.0 °F 47% 30.13 in 10.0 mi NW 5.8 mph - N/A   Clear
6:53 AM 25.0 °F 20.7 °F 10.0 °F 53% 30.14 in 10.0 mi Variable 3.5 mph - N/A   Clear
7:53 AM 26.1 °F 18.4 °F 10.0 °F 51% 30.18 in 10.0 mi Variable 6.9 mph - N/A   Clear
8:53 AM 26.1 °F 18.4 °F 9.0 °F 49% 30.20 in 10.0 mi Variable 6.9 mph 16.1 mph N/A   Clear
9:53 AM 28.0 °F 18.6 °F 9.0 °F 45% 30.20 in 10.0 mi NNW 10.4 mph - 0.00 in   Clear
10:53 AM 28.9 °F 21.1 °F 10.0 °F 45% 30.20 in 10.0 mi North 8.1 mph - 0.00 in   Clear
11:53 AM 28.9 °F 17.7 °F 8.1 °F 41% 30.21 in 10.0 mi North 15.0 mph 23.0 mph 0.00 in   Clear
12:53 PM 30.9 °F 21.7 °F 8.1 °F 38% 30.20 in 10.0 mi NNW 11.5 mph 19.6 mph 0.00 in   Clear
1:53 PM 32.0 °F 23.6 °F 7.0 °F 35% 30.19 in 10.0 mi North 10.4 mph 19.6 mph 0.00 in   Overcast
2:53 PM 30.9 °F 21.2 °F 6.1 °F 35% 30.19 in 10.0 mi NNW 12.7 mph - 0.00 in   Overcast
3:53 PM 30.0 °F 25.2 °F 5.0 °F 35% 30.18 in 10.0 mi Variable 4.6 mph 18.4 mph 0.00 in   Mostly Cloudy
4:53 PM 30.0 °F 25.2 °F 5.0 °F 35% 30.21 in 10.0 mi Variable 4.6 mph - N/A   Mostly Cloudy
5:53 PM 28.9 °F 21.9 °F 3.9 °F 35% 30.20 in 10.0 mi NW 6.9 mph - N/A   Overcast
6:53 PM 28.0 °F 21.7 °F 3.9 °F 36% 30.21 in 10.0 mi NNW 5.8 mph - N/A   Overcast
7:53 PM 27.0 °F 23.0 °F 3.9 °F 37% 30.20 in 10.0 mi NW 3.5 mph - N/A   Overcast
8:53 PM 27.0 °F 20.5 °F 3.0 °F 36% 30.20 in 10.0 mi NNW 5.8 mph - N/A   Overcast
9:53 PM 26.1 °F 19.4 °F 3.0 °F 37% 30.18 in 10.0 mi North 5.8 mph - N/A   Overcast
10:53 PM 25.0 °F 18.1 °F 3.9 °F 41% 30.16 in 10.0 mi North 5.8 mph - N/A   Overcast
11:53 PM 25.0 °F 16.3 °F 3.9 °F 41% 30.16 in 10.0 mi NNE 8.1 mph - N/A   Overcast